Nogales International Airport
KOLS : now visible

Airfield :











YOU CAN JOIN US ON...

 
LOGIN :

Register | Disclaimer

   EN    FR    IT 

 









Legend :    VFR   Marginal VFR   IFR   Intensive IFR   Very Intensive IFR
Visi :
Ceiling :
>= 8 km
>= 3000ft
5 to 8 km
1000 to 3000 ft
1500m to 5 km
500 to 1000 ft
800 to 1500m
200 to 500 ft
< 800m
< 200 ft
Symbols :   Thunderstorms  Fog  Heavy snow  Heavy precipitations  Wind > 20 kt






- Airport Elevation : 3955 ft


KOLS - Nogales International

CURRENT METAR :
  • 171954Z AUTO 26005KT 10SM CLR 21/M05 A2997 RMK AO2 SLP107 T02061050

EXPIRED METARs :
  • 171854Z AUTO 00000KT 10SM CLR 19/M09 A2999 RMK AO2 SLP117 T01891089
  • 171754Z AUTO 16003KT 10SM CLR 17/M03 A3001 RMK AO2 SLP124 T01721033 10172 20033 50006

TAF KOLS
Valid from the 17 at 18:00 until the 18 at 18:00 UTC


171720Z 1718/1818 VRB03KT P6SM BKN250
FM172000 24007KT P6SM BKN250
FM180200 VRB03KT P6SM SKC



MET'MAP, your aeronautical weather chart ! - Copyright ORBIFLY December 2007 - Disclaimer

ORBIFLY MET'MAP TEAM :

Programming & Development : Alexandra Zaïnal
Concept & original design : Baudouin d'Aumeries
Assistance for programming : Marc-Olivier Méhu
Technical & hardware support : Manuel Goepfert

Contact : metmap@orbifly.com




SOURCES & CREDITS :

   NOAA       Earth
Advisory